Dean International
Flight School

Career Spotlight

Mika

Mika

Congratulations to Mika from Khazakstan. She recently sent us this photo of her flying an Airbus airliner.

More...
Mika's Success Story
close

Congratulations to Mika from Khazakstan. She recently sent us this photo of her flying an Airbus airliner.

Mario

Mario

My dreams could not have been realized if I wouldn't have been part of the Dean International family.

More...
Mario's Success Story
close

"My dreams could not have been realized if I wouldn't have been part of the Dean International family. Thank you Robert, thanks to all my co-workers, and thanks to all of my students!"

Fernando

Fernando

I am now working as a First Officer at TACA and am enjoying every moment of it.

More...
Fernando's Success Story
close

"Will never forget my time of flight training at Dean International. I am now working as a First Officer at TACA and am enjoying every moment of it."

Alvaro

Alvaro

Because of the flight time I was able to built while instructing, I got the experience needed to apply to an airline in Colombia.

More...
Alvaro's Success Story
close

Dean alumnus Alvaro Londoño currently flies with Tampa Cargo. He says of his experience at Dean: "I want to take this opportunity to thank you for giving me the chance to build my experience and expand my knowledge in Dean International. Because of the flight time I was able to built flight instructing, I got the experience needed to apply to an airline in Colombia."

Ralph

Ralph

Every Aruban student of Dean International has made it into Tiara Air Aruba, that is very nice.

More...
Ralph's Success Story
close

"Next to me is my Co-Pilot, Elison. This picture was taken on our first flight together, which was almost exactly 5 years after I finished at Dean International. [...] Every Aruban student of Dean International has made it into Tiara Air Aruba. [...] The future looks bright here in Aruba."

Rohaan

Rohaan

The [..] staff will all work diligently to help you finish your certificates as safely and efficiently as possible.

More...
Rohaan's Success Story
close

After receiving very hard times from other flight schools [...], I came to Dean International where Robert Dean personally sat down with me and gave me a financial and chronological look into how much remained to finish my private pilot certificate. Through his hard efforts as an instructor and mentor, I was able to finish my private pilot certificate within one week.

Welcome to Dean International

In over two decades, Dean International has educated over 7,000 pilots from all over the world, including over 1,000 students from India alone. By offering a great training experience, a friendly service staff, an ample variety of aircraft, and by improving constantly, we have become one of the largest, most prestigious FAA 141-approved flight schools in North America. Located in Miami, Florida, USA, our flight school offers an ideal location for year-round, "learn to fly" weather, flight training. Dean International is not only well-equipped to provide services to professional trainees but also caters to General Aviation renters. Visit or contact our headquarters at Kendall-Tamiami Executive Airport located in Miami, FL today to learn more about us, or simply read more about our programs if you are an international student interested in joining our school.

Local Airport Information
TAF FOR KTMB (Issued: Thu, April 24th 2014 6:30 PM UTC)
TAF KTMB 241728Z 2418/2518 23005KT P6SM SKC
      FM242000 16008KT P6SM FEW040
      FM250200 24004KT P6SM FEW025 SCT250
      FM251400 15006KT P6SM SCT025 SCT060
     
METAR FOR KTMB (Issued: Thu, April 24th 2014 11:53 PM UTC):
KTMB 242353Z 19007KT 10SM BKN065 28/19 A2996 RMK AO2 SLP145 T02780189 10311 20267 53002

This weather information is provided by the National Weather Service.
It is automatically refreshed every three minutes.
TAF FOR KHST (Issued: Thu, April 24th 2014 4:06 PM UTC)
TAF KHST 2416/2522 17009KT 9999 FEW040 QNH2991INS
      BECMG 2508/2509 VRB06KT 6000 BR FEW010 SCT040 QNH2994INS
      BECMG 2514/2515 15012KT 9999 NSW FEW040 QNH2995INS TX29/2420Z TN20/2508Z
     
METAR FOR KHST (Issued: Thu, April 24th 2014 11:58 PM UTC):
KHST 242358Z AUTO 17004KT 10SM CLR 25/20 A2996 RMK AO2 SLP149 T02510200 10305 20251 53003 $

This weather information is provided by the National Weather Service.
It is automatically refreshed every three minutes.
TAF FOR KOPF (Issued: Thu, April 24th 2014 6:30 PM UTC)
TAF KOPF 241728Z 2418/2518 16008KT P6SM SCT035
      FM250300 24004KT P6SM FEW025 SCT060
      FM251400 15006KT P6SM SCT025 SCT060
     
METAR FOR KOPF (Issued: Thu, April 24th 2014 11:53 PM UTC):
KOPF 242353Z 16011KT 10SM SCT060 BKN075 27/19 A2996 RMK AO2 SLP146 T02670189 10311 20267 53002

This weather information is provided by the National Weather Service.
It is automatically refreshed every three minutes.
TAF FOR KMIA (Issued: Thu, April 24th 2014 6:33 PM UTC)
TAF KMIA 241728Z 2418/2518 16008KT P6SM FEW035
      FM250300 24004KT P6SM FEW025 SCT250
      FM251400 15006KT P6SM SCT025 SCT060
     
METAR FOR KMIA (Issued: Thu, April 24th 2014 11:53 PM UTC):
KMIA 242353Z 15009KT 10SM SCT060 26/20 A2996 RMK AO2 SLP145 T02610200 10306 20261 53002

This weather information is provided by the National Weather Service.
It is automatically refreshed every three minutes.
Design by Ariel Llizo
© Dean International Inc. 2012